Location: Complexul Astronomic Baia Mare
(47.6577°N, 23.5639°E)
Time: 05:43:50
(UTC+03:00)

ISS - Pass Details

Date: 28 March 2017
Orbit: 399 x 409 km, 51.6° (Epoch: 30 March)

Event Time Altitude Azimuth Distance (km) Brightness Sun altitude
Rises 20:22:42 0° 196° (SSW) 2,297 0.1 -6.3°
Reaches altitude 10° 20:25:27 10° 170° (S) 1,446 -1.2 -6.7°
Maximum altitude 20:27:16 14° 136° (SE) 1,219 -1.9 -7.0°
Drops below altitude 10° 20:29:07 10° 101° (E) 1,455 -1.7 -7.3°
Enters shadow 20:29:11 10° 100° (E) 1,470 -1.7 -7.3°
